Weather History for Corpus Christi, TX

Change the Weather History Date:

Monday, April 1, 2013

  Actual Average Record
Temperature  
Mean Temperature 74 °F 69 °F  
Max Temperature 82 °F 79 °F 92 °F (1983)
Min Temperature 66 °F 60 °F 40 °F (1962)
Degree Days  
Heating Degree Days 0 1  
Month to date heating degree days 0 1  
Since 1 July heating degree days 516 882  
Cooling Degree Days 9 6  
Month to date cooling degree days 9 6  
Year to date cooling degree days 310 197  
Growing Degree Days 24 (Base 50)    
Moisture  
Dew Point 66 °F    
Average Humidity 76    
Maximum Humidity 93    
Minimum Humidity 58    
Precipitation  
Precipitation T in 0.05 in 0.83 in (1945)
Month to date precipitation T 0.05  
Year to date precipitation 1.75 5.41  
Snow  
Snow 0.00 in - - ()
Month to date snowfall 0.0  
Since 1 July snowfall 0.0  
Snow Depth 0.00 in    
Sea Level Pressure  
Sea Level Pressure 29.97 in    
Wind  
Wind Speed 11 mph (ESE)    
Max Wind Speed 23 mph    
Max Gust Speed 29 mph    
Visibility 9 miles    
Events Thunderstorm    
T = Trace of Precipitation, MM = Missing Value Source: NWS Daily Summary

Daily Weather History Graph

Daily Weather History Graph

Search for Another Location

Airport:

Trip Planner

Search our weather history database for the weather conditions in past years. The results will help you decide how hot, cold, wet, or windy it might be!

Date:

Astronomy

Apr. 01, 2013 Rise Set
Actual Time 7:20 AM CDT 7:47 PM CDT
Civil Twilight 6:56 AM CDT 8:11 PM CDT
Nautical Twilight 6:29 AM CDT 8:39 PM CDT
Astronomical Twilight 6:01 AM CDT 9:07 PM CDT
Moon 12:35 AM CDT (4/1) 11:30 AM CDT (4/1)
Length of Visible Light 13h 14m
Length of Day
12h 27m
Waning Gibbous, 67% of the Moon is Illuminated
Apr 1
Waning Gibbous
Apr 2
Last Quarter
Apr 10
New
Apr 18
First Quarter
Apr 25
Full

Hourly Weather History & Observations

Time (CDT) Temp. Heat Index Dew Point Humidity Pressure Visibility Wind Dir Wind Speed Gust Speed Precip Events Conditions
12:51 AM 71.1 °F - 66.0 °F 84% 29.92 in 10.0 mi SE 11.5 mph - N/A   Partly Cloudy
1:02 AM 71.6 °F - 66.2 °F 83% 29.93 in 10.0 mi SE 12.7 mph - N/A   Mostly Cloudy
1:51 AM 72.0 °F - 66.9 °F 84% 29.93 in 10.0 mi SE 9.2 mph - N/A   Mostly Cloudy
2:28 AM 69.8 °F - 66.2 °F 88% 29.93 in 10.0 mi ESE 6.9 mph - N/A   Partly Cloudy
2:51 AM 70.0 °F - 66.0 °F 87% 29.93 in 10.0 mi SE 6.9 mph - N/A   Partly Cloudy
3:51 AM 68.0 °F - 64.0 °F 87% 29.93 in 9.0 mi SE 4.6 mph - N/A   Partly Cloudy
4:51 AM 66.9 °F - 64.0 °F 90% 29.94 in 7.0 mi SE 5.8 mph - N/A   Partly Cloudy
5:47 AM 68.0 °F - 64.4 °F 88% 29.95 in 6.0 mi SE 3.5 mph - N/A   Mostly Cloudy
5:51 AM 68.0 °F - 64.9 °F 90% 29.95 in 6.0 mi SE 4.6 mph - N/A   Overcast
6:46 AM 69.8 °F - 66.2 °F 88% 29.97 in 7.0 mi SE 3.5 mph - N/A   Scattered Clouds
6:51 AM 69.1 °F - 66.0 °F 90% 29.96 in 7.0 mi Calm Calm - N/A   Scattered Clouds
7:46 AM 69.8 °F - 64.4 °F 83% 29.99 in 5.0 mi NNE 3.5 mph - N/A   Mostly Cloudy
7:51 AM 70.0 °F - 66.0 °F 87% 29.99 in 5.0 mi NNE 3.5 mph - N/A   Overcast
8:39 AM 71.6 °F - 66.2 °F 83% 30.01 in 9.0 mi Calm Calm - N/A   Overcast
8:51 AM 72.0 °F - 66.9 °F 84% 30.01 in 10.0 mi Calm Calm - N/A   Overcast
9:47 AM 73.4 °F - 66.2 °F 78% 30.02 in 10.0 mi East 4.6 mph - N/A   Mostly Cloudy
9:51 AM 73.9 °F - 66.0 °F 76% 30.02 in 10.0 mi East 8.1 mph - N/A   Mostly Cloudy
10:51 AM 75.9 °F - 66.0 °F 71% 30.02 in 10.0 mi ESE 10.4 mph - N/A   Mostly Cloudy
11:51 AM 78.1 °F - 64.9 °F 64% 30.02 in 10.0 mi East 11.5 mph 19.6 mph N/A   Mostly Cloudy
12:51 PM 78.1 °F - 64.9 °F 64% 30.02 in 10.0 mi East 9.2 mph - N/A   Mostly Cloudy
1:41 PM 80.6 °F 82.7 °F 66.2 °F 61% 30.01 in 10.0 mi East 16.1 mph - N/A   Mostly Cloudy
1:51 PM 80.1 °F 81.9 °F 64.9 °F 60% 30.00 in 10.0 mi East 16.1 mph 21.9 mph N/A   Mostly Cloudy
2:51 PM 81.0 °F 82.7 °F 64.9 °F 58% 29.99 in 10.0 mi East 16.1 mph - N/A   Mostly Cloudy
3:51 PM 80.1 °F 81.9 °F 64.9 °F 60% 29.97 in 10.0 mi East 18.4 mph - N/A   Mostly Cloudy
4:51 PM 79.0 °F - 66.0 °F 64% 29.95 in 10.0 mi ESE 24.2 mph - N/A   Mostly Cloudy
5:51 PM 75.9 °F - 66.0 °F 71% 29.94 in 10.0 mi East 20.7 mph - N/A   Mostly Cloudy
6:21 PM 75.2 °F - 66.2 °F 73% 29.94 in 10.0 mi ESE 19.6 mph 25.3 mph N/A   Mostly Cloudy
6:51 PM 75.0 °F - 66.0 °F 73% 29.93 in 10.0 mi East 13.8 mph - N/A   Scattered Clouds
7:51 PM 73.0 °F - 66.0 °F 79% 29.94 in 10.0 mi East 15.0 mph - N/A   Partly Cloudy
8:32 PM 71.6 °F - 66.2 °F 83% 29.95 in 10.0 mi East 13.8 mph - N/A   Partly Cloudy
8:51 PM 72.0 °F - 66.9 °F 84% 29.95 in 10.0 mi East 13.8 mph - N/A   Scattered Clouds
9:51 PM 73.0 °F - 66.9 °F 81% 29.95 in 10.0 mi ESE 17.3 mph - N/A   Scattered Clouds
10:51 PM 72.0 °F - 66.9 °F 84% 29.96 in 9.0 mi ESE 13.8 mph 24.2 mph N/A   Partly Cloudy
11:33 PM 71.6 °F - 66.2 °F 83% 29.99 in 9.0 mi SE 12.7 mph - N/A Thunderstorm Thunderstorm
11:51 PM 72.0 °F - 66.9 °F 84% 29.98 in 9.0 mi SE 12.7 mph - N/A Thunderstorm Thunderstorm